Regional Weather Roundup
Issued by NWS Green Bay, WI

Home | Current Version | Previous Version | Text Only | Print | Product List | Glossary On
Versions: 1 2 3 4 5 6 7 8 9 10 11 12 13 14 15 16 17 18 19 20 21 22 23 24 25 26 27 28 29 30 31 32 33 34 35 36 37 38 39 40 41 42 43 44 45 46 47 48 49 50
000
ASUS43 KGRB 240800
RWRGRB

NORTH-CENTRAL AND NORTHEAST WISCONSIN REGIONAL WEATHER ROUNDUP
NATIONAL WEATHER SERVICE GREEN BAY WI
200 AM CST TUE JAN 24 2017

WIZ005-009-010>012-018-019-240900-
NORTH CENTRAL WISCONSIN

CITY           SKY/WX    TMP DP  RH WIND       PRES   REMARKS
IRONWOOD       CLOUDY    33  33 100 W5        29.81R
MANITOWISH WTR NOT AVBL
ARBOR VITAE    NOT AVBL
EAGLE RIVER    NOT AVBL
LAND O LAKES   NOT AVBL
RHINELANDER    CLOUDY    35  35 100 CALM      29.79R FOG
PHILLIPS       CLOUDY    32  32 100 CALM      29.80R
ANTIGO         NOT AVBL
TOMAHAWK       NOT AVBL
MERRILL        FOG       34  34 100 CALM        N/A  VSB 3/4
$$

WIZ013-073-240900-
NORTHEAST WISCONSIN

CITY           SKY/WX    TMP DP  RH WIND       PRES   REMARKS
IRON MOUNTAIN  FOG       34  32  92 NW3       29.76S VSB 1/2
MARINETTE      NOT AVBL
$$

WIZ017-030-035>037-045-240900-
CENTRAL WISCONSIN

CITY           SKY/WX    TMP DP  RH WIND       PRES   REMARKS
MEDFORD        NOT AVBL
WAUSAU         CLOUDY    34  33  96 NW6       29.79R
MOSINEE        NOT AVBL
MARSHFIELD     CLOUDY    33  31  92 NW6       29.81R FOG
WISC RAPIDS    CLOUDY    34  33  96 NW5       29.83R
STEVENS POINT  NOT AVBL
WAUPACA        NOT AVBL
SHAWANO        NOT AVBL
CLINTONVILLE   CLOUDY    34  34 100 NW6       29.80R
WAUTOMA        CLOUDY    34  33  96 W8        29.82S FOG
$$

WIZ038-039-048-051-240900-
FOX VALLEY

CITY           SKY/WX    TMP DP  RH WIND       PRES   REMARKS
NWS GREEN BAY  CLOUDY    36  35  96 W5        29.79R
APPLETON       NOT AVBL
OSHKOSH        CLOUDY    35  33  92 W5        29.80R FOG
FOND DU LAC    CLOUDY    36  32  85 W6        29.80S
$$

WIZ022-050-052-240900-
EAST CENTRAL WISCONSIN

CITY           SKY/WX    TMP DP  RH WIND       PRES   REMARKS
EPHRAIM        NOT AVBL
WASHINGTON ISL NOT AVBL
STURGEON BAY   FOG       32  32 100 N3        29.79S VSB 1/4
MANITOWOC      NOT AVBL
SHEBOYGAN      CLOUDY    35  33  92 W6        29.79R
$$

LMZ563-521-522-541>543-240900-
LAKESHORE

STATION/POSITION TIME  TEMP    WIND        PRES    VSBY  WAVE
                       AIR SEA DIR/SP/G                  HT/PER
                 (UTC) (F)     (DEG/KT/KT) (MB)    (MI)  (FT/S)
SHEBOYGAN LKSHOR 0700   36     290/  6/  7 1008.8F
KEWAUNEE LKSHORE 0730   35     290/  1/  4 1008.0F
NORTHPORT PIER   0740   33     310/  3/  6 1008.5S
SISTER BAY LKSHO 0705   32        CALM       N/A
MENOMINEE LKSHOR 0730   33     310/  3/  3 1007.9R
$$



USA.gov is the U.S. government's official web portal to all federal, state and local government web resources and services.